#timestamp,LO_Frequency,Hit,StdDev 
1648332015.3,286047002.6,P
1648332035.2,286047002.8,N
1648332055.0,286047001.8,N
1648332055.9,286047001.8,N
1648332075.7,286047002.3,N
1648332095.6,286046999.9,N
1648332115.4,286046999.9,N
1648332135.3,286047000.6,N
1648332155.1,286047000.0,N
1648332175.8,286047000.2,N
1648332195.7,286047001.9,N
1648332215.5,286047001.0,N
1648332235.4,286046998.3,N
1648332255.2,286046998.5,N
1648332275.0,286047001.0,N
1648332275.9,286047001.0,N
1648332295.8,286046998.8,N
1648332315.6,286046999.9,N
1648332335.4,286047000.6,N
1648332355.3,286046999.7,N
1648332375.1,286047002.4,N
1648332395.9,286047001.6,N
1648332415.7,286047000.5,N
1648332435.5,286047001.1,N
1648332455.4,286047000.6,N
1648332475.2,286047000.5,N
1648332495.0,286046998.3,N
1648332495.9,286046998.3,N
1648332515.8,286046996.6,N
1648332535.6,286046998.3,N
1648332555.5,286047001.2,N
1648332575.3,286046999.9,N
1648332595.1,286047002.5,N
1648332615.9,286047000.8,N
1648332635.7,286047000.6,N
1648332655.5,286047001.2,N
1648332675.4,286047000.5,N
1648332695.2,286047000.7,N
1648332715.1,286046998.6,N
1648332716.0,286046998.6,N
1648332735.8,286046998.7,N
1648332755.3,286047001.6,N
1648332775.2,286047002.5,N
1648332795.9,286047001.9,N
1648332815.7,286047002.0,N
1648332835.6,286046999.8,N
1648332855.4,286047004.4,Y
1648332875.2,286047001.6,P
1648332895.1,286047002.7,P
1648332896.0,286047002.7,N
1648332915.8,286047000.2,N
1648332935.7,286047003.9,Y
1648332955.5,286047000.1,P
1648332975.3,286047002.0,N
1648332995.2,286047002.0,N
1648333015.0,286047001.7,N
1648333015.9,286047001.7,N
1648333035.8,286047001.8,N
1648333055.6,286047001.8,N
1648333075.4,286047000.1,N
1648333095.3,286047001.0,N
1648333115.1,286047002.5,Y
1648333135.9,286047001.2,P
1648333155.7,286046998.7,P
1648333175.5,286047000.9,N
1648333195.4,286046998.9,N
1648333215.2,286046996.6,N
1648333235.0,286046999.3,N
1648333235.9,286046999.3,N
1648333255.8,286047000.8,N
1648333275.7,286047001.0,N
1648333295.5,286046998.3,N
1648333315.3,286047000.7,N
1648333335.2,286047000.8,N
1648333355.0,286046997.1,N
1648333355.9,286046997.1,N
1648333375.8,286046999.4,N
1648333395.6,286046996.5,N
1648333415.4,286046998.9,N
1648333435.3,286046998.8,N
1648333455.1,286046999.5,N
1648333475.8,286046997.8,N
1648333495.7,286046999.4,N
1648333515.5,286046996.9,N
1648333535.4,286046996.5,N
1648333555.2,286046997.5,N
1648333575.0,286046998.8,N
1648333575.9,286046998.8,N
1648333595.8,286046998.8,N
1648333615.6,286046998.8,N
1648333635.4,286046997.5,N
1648333655.3,286046996.8,N
1648333675.1,286046995.0,Y
1648333695.9,286046997.1,P
1648333715.7,286046999.1,N
1648333735.5,286046999.0,N
1648333755.4,286046999.3,N
1648333775.2,286046997.0,Y
1648333795.0,286046998.6,P
1648333796.0,286046998.6,P
1648333815.8,286046996.8,P
1648333835.6,286046999.1,N
1648333855.5,286047000.8,N
1648333875.3,286046998.1,N
1648333895.1,286046998.7,N
1648333915.9,286046996.5,Y
1648333935.7,286046998.9,P
1648333955.6,286047000.7,P
1648333975.4,286047004.1,P
1648333995.2,286047004.0,N
1648334015.1,286047004.2,N
1648334016.0,286047004.2,N
1648334035.8,286047002.2,N
1648334055.6,286046999.8,N
1648334075.5,286047000.7,N
1648334095.3,286047000.8,N
1648334115.2,286047002.4,N
1648334135.9,286047001.5,N
1648334155.7,286047000.9,N
1648334175.6,286047002.6,N
1648334195.4,286047000.9,N
1648334215.2,286046998.6,N
1648334235.1,286047001.9,N
1648334236.0,286047001.9,N
1648334255.8,286047003.7,N
1648334275.7,286047002.5,N
1648334295.5,286047004.1,N
1648334315.3,286047001.5,N
1648334335.2,286047002.3,N
1648334355.0,286047002.5,N
1648334355.9,286047002.5,N
1648334375.7,286047002.3,N
1648334395.6,286047001.4,N
1648334415.4,286047003.0,N
1648334435.3,286047003.5,N
1648334455.1,286047003.5,N
1648334456.0,286047003.5,N
1648334475.8,286047003.0,N
1648334495.7,286047001.4,N
1648334515.5,286047002.8,N
1648334535.4,286047004.4,Y
1648334555.2,286047001.1,P
1648334575.0,286046999.3,N
1648334575.9,286046999.3,N
1648334595.8,286046998.3,N
1648334615.6,286047000.9,N
1648334635.4,286046998.7,N
1648334655.3,286047002.8,N
1648334675.1,286047002.0,N
1648334695.9,286047002.2,N
1648334715.7,286047002.8,N
1648334735.5,286046999.9,N
1648334755.4,286047001.2,N
1648334775.2,286047002.7,N
1648334795.1,286047004.2,N
1648334796.0,286047004.2,N
1648334815.8,286047000.9,N
1648334835.6,286047001.1,N
1648334855.5,286047000.6,N
1648334875.3,286046998.7,N
1648334895.1,286047001.2,N
1648334915.9,286046998.1,N
1648334935.7,286047000.8,N
1648334955.6,286047001.1,N
1648334975.4,286046998.1,N
1648334995.2,286046998.5,N
1648335015.1,286047001.2,N
1648335016.0,286047001.2,N
1648335035.8,286047002.3,N
1648335055.7,286046998.5,N
1648335075.5,286047000.5,N
1648335095.3,286047000.1,N
1648335115.2,286046999.8,N
1648335135.0,286047001.7,N
1648335135.9,286047001.7,N
1648335155.7,286047000.4,N
1648335175.6,286047000.4,N
1648335195.4,286047000.5,N
1648335215.3,286047000.8,N
1648335235.1,286047001.3,N
1648335236.0,286047001.3,N
1648335255.8,286047002.8,N
1648335275.7,286047001.0,N
1648335295.5,286047000.7,N
1648335315.4,286047000.5,N
1648335335.2,286047000.9,N
1648335355.0,286047000.9,N
1648335355.9,286047000.9,N
1648335375.8,286047002.2,N
1648335395.6,286047004.2,Y
1648335415.5,286047001.6,P
1648335435.3,286047002.8,P
1648335455.1,286047002.1,N
1648335475.9,286047002.4,N
1648335495.7,286047002.6,Y
1648335515.5,286047000.9,P
1648335535.4,286046998.7,N
1648335555.2,286047001.0,N
1648335575.1,286046998.6,N
1648335576.0,286046998.6,N
1648335595.8,286047000.6,N
